Content
SEND FEEDBACK

Daily
Averages
Monthly
Summary
Mexico

CHETUMAL - AIRPORT, QUINTANA ROO


Home > North America > Mexico > Quintana Roo
Elevation: 36 feet     Latitude: 18 30N     Longitude: 088 19W

WEATHER
 
SELECT A DAY
Number of Records: 126,235;   Date Range: 1/1/95 - 12/19/14
 
SHARE

PRINT THIS DATA

[ ← Previous Day ]
WEATHER ALMANAC - OCTOBER 5, 2013
[ Next Day → ]
[ °C ]   °F
Weather ElementAverageHighLow
Temperature86.1 °F92 °F (12:50 pm)82 °F (6:50 am)
Dewpoint78.7 °F80.6 °F (3:40 pm)75.2 °F (7:40 am)
Humidity77.3 %89 % (3:40 pm)56 % (12:50 pm)
Barometer29.87 in29.92 in (9:50 am)29.82 in (4:40 pm)
Wind Speed5.8 mph11.5 mph (1:40 pm)
Weather ElementAverage
Visibility6.7 mi
Wind DirectionENE (79 °)

Weather ElementTotal
Precipitation---
Cooling Degree Days22 (Base 65)
Growing Degree Days37 (Base 50)
Averaged from 20 records on October 5, 2013
WEATHER CONDITIONS BREAKOUT
WIND DIRECTION BREAKOUT
WEATHER BY HOUR - OCTOBER 5, 2013
[ °C ]   °F
Local TimeTemperatureDewpointHumidityBarometerVisibilityWind DirectionWind SpeedGust SpeedPrecipitationEventsConditions
6:50 AM82.0 °F77.0 °F80 %29.88 in6.0 miEast (90°)4.5 mphPartly Cloudy
7:40 AM82.4 °F75.2 °F79 %29.87 in7.0 miEast (90°)5.8 mphMostly Cloudy
8:40 AM84.2 °F77.0 °F79 %29.88 in7.0 miEast (90°)6.9 mphMostly Cloudy
9:40 AM87.8 °F78.8 °F75 %29.91 in7.0 miEast (90°)6.9 mphMostly Cloudy
9:50 AM89.0 °F78.0 °F63 %29.92 in6.0 miEast (100°)6.7 mphMostly Cloudy
10:40 AM87.8 °F78.8 °F75 %29.90 in7.0 miEast (90°)6.9 mphMostly Cloudy
11:40 AM86.0 °F77.0 °F74 %29.90 in7.0 miCalmMostly Cloudy
12:40 PM87.8 °F78.8 °F75 %29.88 in7.0 miESE (120°)6.9 mphMostly Cloudy
12:50 PM92.0 °F78.0 °F56 %29.90 in6.0 miEast (100°)8.9 mphMostly Cloudy
1:40 PM87.8 °F78.8 °F75 %29.86 in7.0 miESE (120°)11.5 mphMostly Cloudy
2:43 PM87.8 °F78.8 °F75 %29.84 in7.0 miESE (120°)11.5 mphMostly Cloudy
3:40 PM84.2 °F80.6 °F89 %29.83 in7.0 miCalmMostly Cloudy
3:50 PM88.0 °F80.0 °F71 %29.84 in6.0 miESE (120°)6.7 mphRainLight Drizzle
4:40 PM86.0 °F80.6 °F84 %29.82 in7.0 miEast (90°)6.9 mphMostly Cloudy
5:41 PM86.0 °F80.6 °F84 %29.83 in7.0 miEast (90°)6.9 mphMostly Cloudy
6:40 PM86.0 °F80.6 °F84 %29.84 in7.0 miEast (90°)6.9 mphMostly Cloudy
6:45 PM85.0 °F76.0 °F69 %29.86 in6.0 miEast (90°)6.7 mphPartly Cloudy
7:40 PM84.2 °F80.6 °F89 %29.86 in7.0 miCalmMostly Cloudy
8:40 PM84.2 °F80.6 °F89 %29.88 in7.0 miCalmMostly Cloudy
9:50 PM83.0 °F78.0 °F80 %29.91 in5.0 miEast (90°)4.5 mphScattered Clouds
Hourly data recorded from MMCM, located miles away from Chetumal - Airport, Quintana Roo







STORIES FROM OUR PARTNERS